FW2527 Weather Reports


Display with metric or nautical units.
time (UTC)temp
F
wind
direction
speed
MPH
gust
MPH
rain 1hr
in
rain 24hr
in
rain mn
in
humidity
%
barometer
mb
20260903174552 71 0.0 0.0 0.00 0.00 0.00 74 1014.6
20260903174042 71 0.0 0.0 0.00 0.00 0.00 74 1014.7
20260903173532 71 0.0 0.0 0.00 0.00 0.00 74 1014.5
20260903173052 71 0.0 0.0 0.00 0.00 0.00 73 1014.4
20260903172542 72 0.0 0.0 0.00 0.00 0.00 73 1014.6
20260903172032 72 0.0 0.0 0.00 0.00 0.00 73 1014.4
20260903171553 72 0.0 0.0 0.00 0.00 0.00 73 1014.3
20260903171043 72 0.0 0.0 0.00 0.00 0.00 73 1014.4
20260903170533 72 0.0 0.0 0.00 0.00 0.00 73 1014.4
20260903165542 72 0.0 0.0 0.00 0.00 0.00 72 1014.2
20260903165034 72 0.0 0.0 0.00 0.00 0.00 72 1014.6
20260903164554 73 0.0 0.0 0.00 0.00 0.00 71 1014.3
20260903164044 73 0.0 0.0 0.00 0.00 0.00 70 1014.5
20260903163534 73 0.0 0.0 0.00 0.00 0.00 69 1014.3
20260903163055 73 0.0 0.0 0.00 0.00 0.00 68 1014.3
20260903162544 74 0.0 0.0 0.00 0.00 0.00 67 1014.3
20260903162036 74 0.0 0.0 0.00 0.00 0.00 65 1014.3
20260903161556 74 0.0 0.0 0.00 0.00 0.00 65 1014.4
20260903161045 74 0.0 0.0 0.00 0.00 0.00 64 1014.3
20260903160535 75 0.0 0.0 0.00 0.00 0.00 64 1014.3
20260903160056 75 0.0 0.0 0.00 0.00 0.00 64 1014.3
20260903155545 75 0.0 0.0 0.00 0.00 0.00 63 1014.3
20260903155035 75 0.0 0.0 0.00 0.00 0.00 62 1014.2
20260903154553 76 0.0 0.0 0.00 0.00 0.00 63 1014.2
20260903154039 75 0.0 0.0 0.00 0.00 0.00 64 1014.2
20260903153526 76 0.0 0.0 0.00 0.00 0.00 64 1014.3
20260903153103 76 0.0 0.0 0.00 0.00 0.00 64 1014.2
20260903152537 76 0.0 0.0 0.00 0.00 0.00 65 1014.3
20260903152028 76 0.0 0.0 0.00 0.00 0.00 65 1014.2
20260903151549 75 0.0 0.0 0.00 0.00 0.00 64 1014.1
20260903151039 75 0.0 0.0 0.00 0.00 0.00 65 1014.1
20260903150529 75 0.0 0.0 0.00 0.00 0.00 64 1014.2
20260903145540 75 0.0 0.0 0.00 0.00 0.00 65 1014.2
20260903145029 75 0.0 0.0 0.00 0.00 0.00 68 1014.1
20260903144551 74 0.0 0.0 0.00 0.00 0.00 69 1014.2
20260903144040 74 0.0 0.0 0.00 0.00 0.00 69 1014.2
20260903143531 74 0.0 0.0 0.00 0.00 0.00 68 1014.1
20260903143101 75 0.0 0.0 0.00 0.00 0.00 67 1014.2
20260903142542 75 0.0 0.0 0.00 0.00 0.00 67 1014.2
20260903142032 74 0.0 0.0 0.00 0.00 0.00 68 1014.2
20260903141551 74 0.0 0.0 0.00 0.00 0.00 68 1014.1
20260903141042 74 0.0 0.0 0.00 0.00 0.00 69 1014.0
20260903140532 74 0.0 0.0 0.00 0.00 0.00 69 1014.2
20260903140052 74 0.0 0.0 0.00 0.00 0.00 70 1014.0
20260903135541 74 0.0 0.0 0.00 0.00 0.00 70 1013.9
20260903135032 74 0.0 0.0 0.00 0.00 0.00 70 1014.0
20260903134553 74 0.0 0.0 0.00 0.00 0.00 70 1014.1
20260903134042 74 0.0 0.0 0.00 0.00 0.00 71 1014.1
20260903133532 74 0.0 0.0 0.00 0.00 0.00 70 1014.1
20260903133054 74 0.0 0.0 0.00 0.00 0.00 70 1014.1
20260903132543 74 0.0 0.0 0.00 0.00 0.00 72 1014.0
20260903132033 73 0.0 0.0 0.00 0.00 0.00 73 1014.1
20260903131554 73 0.0 0.0 0.00 0.00 0.00 73 1013.9
20260903131044 74 0.0 0.0 0.00 0.00 0.00 72 1014.0
20260903130536 73 0.0 0.0 0.00 0.00 0.00 74 1013.7
20260903130055 73 0.0 0.0 0.00 0.00 0.00 73 1013.7
20260903125545 73 0.0 0.0 0.00 0.00 0.00 74 1013.9
20260903125038 73 0.0 0.0 0.00 0.00 0.00 74 1013.9
20260903124557 73 0.0 0.0 0.00 0.00 0.00 74 1013.9
20260903124047 73 0.0 0.0 0.00 0.00 0.00 74 1013.9
20260903123536 73 0.0 0.0 0.00 0.00 0.00 75 1013.9
20260903123058 73 0.0 0.0 0.00 0.00 0.00 74 1013.9
20260903122546 73 0.0 0.0 0.00 0.00 0.00 74 1013.7
20260903122036 73 0.0 0.0 0.00 0.00 0.00 75 1013.6
20260903121556 72 0.0 0.0 0.00 0.00 0.00 76 1013.7
20260903121049 72 0.0 0.0 0.00 0.00 0.00 77 1013.9
20260903120540 72 0.0 0.0 0.00 0.00 0.00 76 1013.9
20260903120058 72 0.0 0.0 0.00 0.00 0.00 78 1013.9
20260903115547 71 0.0 0.0 0.00 0.00 0.00 80 1014.0
20260903115037 71 0.0 0.0 0.00 0.00 0.00 79 1014.1
20260903114601 71 0.0 0.0 0.00 0.00 0.00 79 1014.0
20260903114049 72 0.0 0.0 0.00 0.00 0.00 79 1014.1
20260903113538 72 0.0 0.0 0.00 0.00 0.00 79 1014.0
20260903113007 71 0.0 0.0 0.00 0.00 0.00 79 1014.1
20260903112600 71 0.0 0.0 0.00 0.00 0.00 79 1014.1
20260903112049 72 0.0 0.0 0.00 0.00 0.00 79 1014.0
20260903111529 72 0.0 0.0 0.00 0.00 0.00 79 1014.1
20260903111009 72 0.0 0.0 0.00 0.00 0.00 80 1014.1
20260903110601 71 0.0 0.0 0.00 0.00 0.00 82 1014.1
20260903110019 70 0.0 0.0 0.00 0.00 0.00 83 1014.2
20260903105508 69 0.0 0.0 0.00 0.00 0.00 84 1014.3
20260903105100 69 0.0 0.0 0.00 0.00 0.00 85 1014.2
20260903104520 68 0.0 0.0 0.00 0.00 0.00 86 1014.2
20260903104008 68 0.0 0.0 0.00 0.00 0.00 86 1014.3
20260903103602 67 0.0 0.0 0.00 0.00 0.00 86 1014.3
20260903103030 67 0.0 0.0 0.00 0.00 0.00 87 1014.4
20260903102520 67 0.0 0.0 0.00 0.00 0.00 87 1014.4
20260903102009 67 0.0 0.0 0.00 0.00 0.00 87 1014.5
20260903101530 67 0.0 0.0 0.00 0.00 0.00 87 1014.5
20260903101021 67 0.0 0.0 0.00 0.00 0.00 86 1014.4
20260903100511 67 0.0 0.0 0.00 0.00 0.00 87 1014.3
20260903100032 67 0.0 0.0 0.00 0.00 0.00 87 1014.2
20260903095520 66 0.0 0.0 0.00 0.00 0.00 88 1014.1
20260903095011 66 0.0 0.0 0.00 0.00 0.00 88 1014.2
20260903094604 66 0.0 0.0 0.00 0.00 0.00 89 1014.2
20260903094049 65 0.0 0.0 0.00 0.00 0.00 88 1014.2
20260903093539 65 0.0 0.0 0.00 0.00 0.00 88 1014.3
20260903093105 65 0.0 0.0 0.00 0.00 0.00 88 1014.5
20260903092548 65 0.0 0.0 0.00 0.00 0.00 88 1014.4
20260903092042 65 0.0 0.0 0.00 0.00 0.00 88 1014.1
20260903091559 64 0.0 0.0 0.00 0.00 0.00 88 1014.1
20260903091049 64 0.0 0.0 0.00 0.00 0.00 88 1014.0
20260903090539 64 0.0 0.0 0.00 0.00 0.00 88 1014.0
20260903090059 64 0.0 0.0 0.00 0.00 0.00 88 1014.1
20260903085550 64 0.0 0.0 0.00 0.00 0.00 88 1014.1
20260903085040 64 0.0 0.0 0.00 0.00 0.00 88 1014.0
20260903084520 64 0.0 0.0 0.00 0.00 0.00 88 1014.0
20260903084100 64 0.0 0.0 0.00 0.00 0.00 88 1014.1
20260903083550 65 0.0 0.0 0.00 0.00 0.00 87 1014.1
20260903083106 65 0.0 0.0 0.00 0.00 0.00 87 1014.0
20260903082550 65 0.0 0.0 0.00 0.00 0.00 86 1014.1
20260903082041 65 0.0 0.0 0.00 0.00 0.00 86 1014.0
20260903081628 66 0.0 0.0 0.00 0.00 0.00 85 1013.9
20260903081051 66 0.0 0.0 0.00 0.00 0.00 85 1013.8
20260903080541 66 0.0 0.0 0.00 0.00 0.00 84 1014.0
20260903080104 66 0.0 0.0 0.00 0.00 0.00 83 1014.2
20260903075552 66 0.0 0.0 0.00 0.00 0.00 82 1014.1
20260903075041 67 0.0 0.0 0.00 0.00 0.00 81 1014.2
20260903074604 67 0.0 0.0 0.00 0.00 0.00 81 1014.2
20260903074052 67 0.0 0.0 0.00 0.00 0.00 80 1014.1
20260903073544 67 0.0 0.0 0.00 0.00 0.00 80 1014.0
20260903073002 67 0.0 0.0 0.00 0.00 0.00 80 1014.1
20260903072554 67 0.0 0.0 0.00 0.00 0.00 80 1014.1
20260903072044 66 0.0 0.0 0.00 0.00 0.00 80 1014.0
20260903071503 66 0.0 0.0 0.00 0.00 0.00 80 1014.1
20260903071053 66 0.0 0.0 0.00 0.00 0.00 80 1014.1
20260903070547 66 0.0 0.0 0.00 0.00 0.00 80 1014.2
20260903070001 66 0.0 0.0 0.00 0.00 0.00 80 1014.2
20260903065558 66 0.0 0.0 0.00 0.00 0.00 80 1014.1
20260903065043 66 0.0 0.0 0.00 0.00 0.00 80 1014.2
20260903064502 66 0.0 0.0 0.00 0.00 0.00 79 1014.1
20260903064054 66 0.0 0.0 0.00 0.00 0.00 79 1014.0
20260903063543 66 0.0 0.0 0.00 0.00 0.00 79 1014.0
20260903063005 66 0.0 0.0 0.00 0.00 0.00 79 1013.9
20260903062555 66 0.0 0.0 0.00 0.00 0.00 79 1013.9
20260903062045 65 0.0 0.0 0.00 0.00 0.00 79 1014.0
20260903061512 65 0.0 0.0 0.00 0.00 0.00 78 1013.9
20260903061055 65 0.0 0.0 0.00 0.00 0.00 78 1013.9
20260903060546 65 0.0 0.0 0.00 0.00 0.00 78 1014.0
20260903060003 65 0.0 0.0 0.00 0.00 0.00 78 1014.2
20260903055556 65 0.0 0.0 0.00 0.00 0.00 78 1014.2
20260903055045 65 0.0 0.0 0.00 0.00 0.00 78 1014.1
20260903054509 65 0.0 0.0 0.00 0.00 0.00 77 1014.1
20260903054056 65 0.0 0.0 0.00 0.00 0.00 77 1014.3
20260903053545 64 0.0 0.0 0.00 0.00 0.00 77 1014.1
20260903053005 64 0.0 0.0 0.00 0.00 0.00 77 1014.0
20260903052557 64 0.0 0.0 0.00 0.00 0.00 77 1014.1
20260903052047 64 0.0 0.0 0.00 0.00 0.00 77 1014.1
20260903051505 64 0.0 0.0 0.00 0.00 0.00 77 1013.9
20260903051056 64 0.0 0.0 0.00 0.00 0.00 77 1013.9
20260903050546 64 0.0 0.0 0.00 0.00 0.00 77 1013.8
20260903050021 65 0.0 0.0 0.00 0.00 0.00 76 1013.7
20260903045558 64 0.0 0.0 0.00 0.00 0.00 77 1013.7
20260903045047 64 0.0 0.0 0.00 0.00 0.00 77 1013.8
20260903044506 64 0.0 0.0 0.00 0.00 0.00 77 1013.8
20260903044101 64 0.0 0.0 0.00 0.00 0.00 78 1013.9
20260903043549 64 0.0 0.0 0.00 0.00 0.00 78 1014.0
20260903043007 64 0.0 0.0 0.00 0.00 0.00 78 1014.3
20260903042601 64 0.0 0.0 0.00 0.00 0.00 79 1014.3
20260903042049 64 0.0 0.0 0.00 0.00 0.00 79 1014.2
20260903041520 64 0.0 0.0 0.00 0.00 0.00 79 1014.2
20260903041008 64 0.0 0.0 0.00 0.00 0.00 79 1014.3
20260903040600 64 0.0 0.0 0.00 0.00 0.00 79 1014.4
20260903040018 64 0.0 0.0 0.00 0.00 0.00 79 1014.3
20260903035508 64 0.0 0.0 0.00 0.00 0.00 79 1014.2
20260903035101 64 0.0 0.0 0.00 0.00 0.00 79 1014.4
20260903034519 64 0.0 0.0 0.00 0.00 0.00 79 1014.5
20260903034008 64 0.0 0.0 0.00 0.00 0.00 79 1014.6
20260903033600 64 0.0 0.0 0.00 0.00 0.00 79 1014.6
20260903033032 64 0.0 0.0 0.00 0.00 0.00 80 1014.4
20260903032521 64 0.0 0.0 0.00 0.00 0.00 80 1014.5
20260903032009 64 0.0 0.0 0.00 0.00 0.00 80 1014.5
20260903031535 64 0.0 0.0 0.00 0.00 0.00 80 1014.6
20260903031019 64 0.0 0.0 0.00 0.00 0.00 80 1014.9
20260903030513 64 0.0 0.0 0.00 0.00 0.00 79 1015.0
20260903030030 64 0.0 0.0 0.00 0.00 0.00 79 1015.0
20260903025518 65 0.0 0.0 0.00 0.00 0.00 79 1015.1
20260903025008 65 0.0 0.0 0.00 0.00 0.00 78 1015.1
20260903024529 65 0.0 0.0 0.00 0.00 0.00 78 1014.9
20260903024019 65 0.0 0.0 0.00 0.00 0.00 78 1014.9
20260903023509 64 0.0 0.0 0.00 0.00 0.00 77 1015.1
20260903023033 64 0.0 0.0 0.00 0.00 0.00 77 1015.0
20260903022521 64 0.0 0.0 0.00 0.00 0.00 77 1015.2
20260903022012 64 0.0 0.0 0.00 0.00 0.00 77 1015.1
20260903021531 64 0.0 0.0 0.00 0.00 0.00 77 1015.2
20260903021022 64 0.0 0.0 0.00 0.00 0.00 78 1015.2
20260903020514 64 0.0 0.0 0.00 0.00 0.00 78 1015.2
20260903020055 64 0.0 0.0 0.00 0.00 0.00 78 1015.4
20260903015521 64 0.0 0.0 0.00 0.00 0.00 78 1015.3
20260903015011 64 0.0 0.0 0.00 0.00 0.00 78 1015.3
20260903014542 64 0.0 0.0 0.00 0.00 0.00 78 1015.3
20260903014032 64 0.0 0.0 0.00 0.00 0.00 78 1015.4
20260903013522 63 0.0 0.0 0.00 0.00 0.00 78 1015.5
20260903013043 63 0.0 0.0 0.00 0.00 0.00 79 1015.5
20260903012533 63 0.0 0.0 0.00 0.00 0.00 79 1015.5
20260903012027 63 0.0 0.0 0.00 0.00 0.00 79 1015.6
20260903011544 64 0.0 0.0 0.00 0.00 0.00 79 1015.7
20260903011034 64 0.0 0.0 0.00 0.00 0.00 79 1015.8
20260903010524 64 0.0 0.0 0.00 0.00 0.00 79 1015.7
20260903010044 64 0.0 0.0 0.00 0.00 0.00 78 1015.9
20260903005535 64 0.0 0.0 0.00 0.00 0.00 78 1015.8
20260903005028 64 0.0 0.0 0.00 0.00 0.00 78 1015.9
20260903004545 64 0.0 0.0 0.00 0.00 0.00 78 1016.0
20260903004035 64 0.0 0.0 0.00 0.00 0.00 78 1016.0
20260903003525 64 0.0 0.0 0.00 0.00 0.00 77 1016.1
20260903003046 64 0.0 0.0 0.00 0.00 0.00 77 1016.0
20260903002536 64 0.0 0.0 0.00 0.00 0.00 77 1016.0
20260903002026 64 0.0 0.0 0.00 0.00 0.00 77 1016.1
20260903001603 64 0.0 0.0 0.00 0.00 0.00 77 1016.2
20260903001037 65 0.0 0.0 0.00 0.00 0.00 77 1016.2
20260903000527 65 0.0 0.0 0.00 0.00 0.00 77 1016.4
20260903000055 65 0.0 0.0 0.00 0.00 0.00 76 1016.7
20260902235538 65 0.0 0.0 0.00 0.00 0.00 76 1016.6
20260902235028 65 0.0 0.0 0.00 0.00 0.00 76 1016.8
20260902234548 65 0.0 0.0 0.00 0.00 0.00 76 1016.6
20260902234038 65 0.0 0.0 0.00 0.00 0.00 76 1016.6
20260902233529 65 0.0 0.0 0.00 0.00 0.00 76 1016.5
20260902233055 65 0.0 0.0 0.00 0.00 0.00 76 1016.6
20260902232538 65 0.0 0.0 0.00 0.00 0.00 76 1016.6
20260902232028 64 0.0 0.0 0.00 0.00 0.00 77 1016.6
20260902231554 64 0.0 0.0 0.00 0.00 0.00 77 1016.6
20260902231040 64 0.0 0.0 0.00 0.00 0.00 78 1016.7
20260902230530 64 0.0 0.0 0.00 0.00 0.00 78 1016.8
20260902230051 64 0.0 0.0 0.00 0.00 0.00 78 1016.6
20260902225541 64 0.0 0.0 0.00 0.00 0.00 79 1016.6
20260902225031 64 0.0 0.0 0.00 0.00 0.00 79 1016.7
20260902224552 64 0.0 0.0 0.00 0.00 0.00 79 1016.7
20260902224042 64 0.0 0.0 0.00 0.00 0.00 80 1016.8
20260902223532 64 0.0 0.0 0.00 0.00 0.00 80 1016.9
20260902223052 64 0.0 0.0 0.00 0.00 0.00 80 1016.9
20260902222542 64 0.0 0.0 0.00 0.00 0.00 80 1016.9
20260902222031 64 0.0 0.0 0.00 0.00 0.00 80 1016.8
20260902221610 64 0.0 0.0 0.00 0.00 0.00 80 1016.9
20260902221043 64 0.0 0.0 0.00 0.00 0.00 80 1017.0
20260902220533 64 0.0 0.0 0.00 0.00 0.00 81 1017.0
20260902220100 64 0.0 0.0 0.00 0.00 0.00 81 1017.2
20260902215543 64 0.0 0.0 0.00 0.00 0.00 81 1017.1
20260902215032 64 0.0 0.0 0.00 0.00 0.00 82 1017.1
20260902214553 64 0.0 0.0 0.00 0.00 0.00 82 1017.2
20260902214046 64 0.0 0.0 0.00 0.00 0.00 82 1017.1
20260902213537 63 0.0 0.0 0.00 0.00 0.00 82 1017.2
20260902213056 63 0.0 0.0 0.00 0.00 0.00 83 1017.2
20260902212543 63 0.0 0.0 0.00 0.00 0.00 83 1017.2
20260902212034 63 0.0 0.0 0.00 0.00 0.00 83 1017.3
20260902211558 63 0.0 0.0 0.00 0.00 0.00 83 1017.3
20260902211044 63 0.0 0.0 0.00 0.00 0.00 83 1017.3
20260902210534 63 0.0 0.0 0.00 0.00 0.00 83 1017.2
20260902210056 64 0.0 0.0 0.00 0.00 0.00 83 1017.3
20260902205545 64 0.0 0.0 0.00 0.00 0.00 83 1017.4
20260902205035 64 0.0 0.0 0.00 0.00 0.00 83 1017.4
20260902204612 63 0.0 0.0 0.00 0.00 0.00 83 1017.5
20260902204048 63 0.0 0.0 0.00 0.00 0.00 83 1017.6
20260902203537 64 0.0 0.0 0.00 0.00 0.00 83 1017.5
20260902203057 63 0.0 0.0 0.00 0.00 0.00 83 1017.6
20260902202549 64 0.0 0.0 0.00 0.00 0.00 83 1017.6
20260902202037 64 0.0 0.0 0.00 0.00 0.00 83 1017.7
20260902201558 64 0.0 0.0 0.00 0.00 0.00 83 1017.6
20260902201049 64 0.0 0.0 0.00 0.00 0.00 83 1017.6
20260902200538 64 0.0 0.0 0.00 0.00 0.00 82 1017.7
20260902200058 64 0.0 0.0 0.00 0.00 0.00 82 1017.8
20260902195551 64 0.0 0.0 0.00 0.00 0.00 82 1017.8
20260902195037 64 0.0 0.0 0.00 0.00 0.00 82 1017.8
20260902194611 64 0.0 0.0 0.00 0.00 0.00 82 1017.9
20260902194051 64 0.0 0.0 0.00 0.00 0.00 82 1017.8
20260902193539 64 0.0 0.0 0.00 0.00 0.00 82 1017.7
20260902193100 64 0.0 0.0 0.00 0.00 0.00 82 1017.8
20260902192549 64 0.0 0.0 0.00 0.00 0.00 82 1017.8
20260902192040 64 0.0 0.0 0.00 0.00 0.00 82 1017.8
20260902191607 64 0.0 0.0 0.00 0.00 0.00 82 1017.9
20260902191050 64 0.0 0.0 0.00 0.00 0.00 82 1017.9
20260902190542 64 0.0 0.0 0.00 0.00 0.00 82 1018.0
20260902185551 64 0.0 0.0 0.00 0.00 0.00 82 1018.0
20260902185040 64 0.0 0.0 0.00 0.00 0.00 82 1018.0
20260902184509 64 0.0 0.0 0.00 0.00 0.00 82 1018.0
20260902184101 64 0.0 0.0 0.00 0.00 0.00 82 1018.0
20260902183551 64 0.0 0.0 0.00 0.00 0.00 82 1017.9
20260902183011 64 0.0 0.0 0.00 0.00 0.00 82 1017.9
20260902182606 64 0.0 0.0 0.00 0.00 0.00 82 1017.8
20260902182052 64 0.0 0.0 0.00 0.00 0.00 82 1017.8
20260902181512 64 0.0 0.0 0.00 0.00 0.00 82 1017.8
20260902181003 64 0.0 0.0 0.00 0.00 0.00 83 1017.8
20260902180553 64 0.0 0.0 0.00 0.00 0.00 83 1017.8
20260902180019 64 0.0 0.0 0.00 0.00 0.00 82 1017.8
20260902175509 64 0.0 0.0 0.00 0.00 0.00 82 1017.8
20260902175101 64 0.0 0.0 0.00 0.00 0.00 82 1017.7